AFR842 LFPG-TFFF

Flight info

Callsign AFR842
Flight time N/A
Altitude 34000
Route LGL UN491 OTOFE DCT LARLA DCT RATKA/M083F340 DCT ATSUR DCT SOMAX DCT 50N020W/M083F360 47N030W 40N040W/M083F340 36N045W 31N050W 24N055W/M083F360 DCT DRDGE/N0486F360 DCT UMAMU UMAMU2T
Aircraft B77W/H-SDE1E2E3FGHIJ2J3J4J5M1RWXYZ/LB1D1

Departure

Time N/A
Airport Charles de Gaulle International Airport (LFPG)

Arrival

Time 2026-04-24 16:21
Airport Martinique Aimé Césaire International Airport (TFFF)
Time Latitude Longitude Altitude Speed Heading
2026-04-24 15:38 17.71386 -58.30554 36021 ft 443 kts 228°
2026-04-24 15:38 17.69242 -58.32838 36019 ft 444 kts 228°
2026-04-24 15:38 17.64902 -58.37459 36021 ft 444 kts 228°
2026-04-24 15:39 17.60567 -58.42071 36017 ft 445 kts 228°
2026-04-24 15:39 17.56203 -58.46712 36020 ft 446 kts 227°
2026-04-24 15:40 17.51853 -58.51333 36018 ft 446 kts 227°
2026-04-24 15:40 17.47503 -58.55953 36017 ft 447 kts 227°
2026-04-24 15:41 17.43119 -58.60604 36020 ft 447 kts 227°
2026-04-24 15:41 17.38770 -58.65215 36018 ft 447 kts 227°
2026-04-24 15:42 17.34389 -58.69855 36019 ft 447 kts 227°
2026-04-24 15:42 17.30038 -58.74461 36018 ft 447 kts 227°
2026-04-24 15:43 17.25651 -58.79102 36018 ft 447 kts 227°
2026-04-24 15:43 17.21301 -58.83701 36020 ft 447 kts 227°
2026-04-24 15:44 17.16929 -58.88320 36021 ft 447 kts 227°
2026-04-24 15:44 17.12532 -58.92963 36018 ft 447 kts 227°
2026-04-24 15:45 17.08165 -58.97569 36017 ft 447 kts 227°
2026-04-24 15:45 17.03794 -59.02176 36020 ft 448 kts 227°
2026-04-24 15:46 16.99392 -59.06813 36019 ft 448 kts 227°
2026-04-24 15:46 16.95009 -59.11427 36019 ft 448 kts 227°
2026-04-24 15:47 16.90625 -59.16040 36018 ft 448 kts 227°
2026-04-24 15:47 16.86240 -59.20649 36019 ft 448 kts 227°
2026-04-24 15:48 16.81832 -59.25279 36020 ft 448 kts 227°
2026-04-24 15:48 16.77433 -59.29897 36018 ft 448 kts 227°
2026-04-24 15:49 16.73046 -59.34499 36019 ft 449 kts 227°
2026-04-24 15:49 16.68626 -59.39132 36020 ft 449 kts 227°
2026-04-24 15:50 16.64240 -59.43727 36016 ft 449 kts 227°
2026-04-24 15:50 16.59828 -59.48345 36020 ft 450 kts 227°
2026-04-24 15:51 16.55393 -59.52985 36018 ft 450 kts 227°
2026-04-24 15:51 16.50987 -59.57590 36020 ft 451 kts 227°
2026-04-24 15:52 16.46530 -59.62246 36024 ft 451 kts 227°
2026-04-24 15:52 16.42107 -59.66864 36028 ft 452 kts 226°
2026-04-24 15:53 16.37677 -59.71486 36027 ft 452 kts 226°
2026-04-24 15:53 16.33221 -59.76133 36027 ft 452 kts 226°
2026-04-24 15:54 16.28794 -59.80745 36030 ft 452 kts 226°
2026-04-24 15:54 16.24358 -59.85363 36027 ft 452 kts 226°
2026-04-24 15:55 16.19900 -59.90000 36027 ft 452 kts 226°
2026-04-24 15:55 16.15455 -59.94622 36028 ft 453 kts 226°
2026-04-24 15:56 16.10977 -59.99275 36028 ft 453 kts 226°
2026-04-24 15:56 16.06538 -60.03885 36028 ft 453 kts 226°
2026-04-24 15:57 16.02061 -60.08531 36025 ft 451 kts 226°
2026-04-24 15:57 15.97642 -60.13115 35484 ft 450 kts 226°
2026-04-24 15:58 15.95434 -60.15404 35140 ft 452 kts 226°
2026-04-24 15:58 15.93209 -60.17709 34874 ft 451 kts 226°
2026-04-24 15:58 15.90951 -60.19991 34687 ft 449 kts 222°
2026-04-24 15:58 15.88454 -60.21884 34486 ft 448 kts 214°
2026-04-24 15:59 15.85783 -60.23568 34284 ft 447 kts 212°
2026-04-24 15:59 15.83113 -60.25169 33992 ft 446 kts 212°
2026-04-24 15:59 15.80403 -60.26783 33430 ft 444 kts 212°
2026-04-24 15:59 15.77753 -60.28378 32900 ft 441 kts 212°
2026-04-24 16:00 15.75117 -60.29988 32358 ft 437 kts 213°
2026-04-24 16:00 15.72499 -60.31607 31818 ft 434 kts 213°
2026-04-24 16:00 15.69941 -60.33202 31284 ft 431 kts 213°
2026-04-24 16:00 15.67358 -60.34819 30763 ft 429 kts 214°
2026-04-24 16:01 15.64840 -60.36398 30239 ft 426 kts 214°
2026-04-24 16:01 15.62296 -60.37993 29719 ft 423 kts 214°
2026-04-24 16:01 15.59813 -60.39550 29174 ft 421 kts 214°
2026-04-24 16:01 15.57273 -60.41143 28226 ft 428 kts 214°
2026-04-24 16:02 15.54687 -60.42765 27177 ft 437 kts 213°
2026-04-24 16:02 15.52099 -60.44387 26338 ft 440 kts 213°
2026-04-24 16:02 15.49460 -60.46038 25506 ft 441 kts 213°
2026-04-24 16:02 15.46849 -60.47670 24733 ft 442 kts 213°
2026-04-24 16:03 15.44215 -60.49316 24049 ft 439 kts 212°
2026-04-24 16:03 15.41601 -60.50949 23430 ft 436 kts 212°
2026-04-24 16:03 15.39877 -60.52024 23060 ft 432 kts 212°
2026-04-24 16:03 15.36478 -60.54145 22309 ft 426 kts 212°
2026-04-24 16:04 15.33943 -60.55728 21731 ft 423 kts 212°
2026-04-24 16:04 15.31435 -60.57292 21135 ft 419 kts 212°
2026-04-24 16:04 15.29781 -60.58324 20744 ft 417 kts 212°
2026-04-24 16:04 15.27315 -60.59863 20185 ft 413 kts 212°
2026-04-24 16:05 15.22438 -60.62906 19041 ft 407 kts 212°
2026-04-24 16:05 15.20012 -60.64418 18483 ft 404 kts 212°
2026-04-24 16:06 15.15345 -60.67326 16598 ft 380 kts 212°
2026-04-24 16:06 15.13080 -60.68736 15152 ft 376 kts 212°
2026-04-24 16:06 15.08651 -60.71495 12478 ft 370 kts 211°
2026-04-24 16:07 15.06434 -60.72876 11610 ft 370 kts 211°
2026-04-24 16:07 15.04181 -60.74279 11072 ft 382 kts 211°
2026-04-24 16:07 14.99918 -60.76931 9773 ft 338 kts 211°
2026-04-24 16:08 14.97963 -60.78147 9307 ft 315 kts 211°
2026-04-24 16:08 14.94411 -60.80357 8179 ft 287 kts 210°
2026-04-24 16:09 14.91056 -60.82441 6751 ft 278 kts 210°
2026-04-24 16:09 14.89394 -60.83473 5996 ft 276 kts 210°
2026-04-24 16:09 14.87778 -60.84477 5282 ft 272 kts 210°
2026-04-24 16:09 14.86149 -60.85489 4580 ft 276 kts 209°
2026-04-24 16:10 14.81271 -60.88517 3774 ft 269 kts 209°
2026-04-24 16:11 14.78064 -60.90508 3146 ft 268 kts 209°
2026-04-24 16:11 14.76486 -60.91487 3054 ft 260 kts 209°
2026-04-24 16:11 14.74927 -60.92453 3033 ft 264 kts 209°
2026-04-24 16:12 14.71744 -60.94426 3012 ft 268 kts 209°
2026-04-24 16:12 14.70307 -60.95314 3006 ft 270 kts 209°
2026-04-24 16:12 14.67175 -60.97263 2983 ft 250 kts 209°
2026-04-24 16:13 14.65729 -60.98161 2974 ft 238 kts 209°
2026-04-24 16:13 14.62886 -60.99920 2990 ft 238 kts 209°
2026-04-24 16:14 14.60097 -61.01704 2996 ft 234 kts 208°
2026-04-24 16:14 14.58780 -61.02637 2945 ft 229 kts 226°
2026-04-24 16:14 14.57028 -61.05242 2782 ft 213 kts 234°
2026-04-24 16:15 14.56492 -61.06078 2688 ft 208 kts 234°
2026-04-24 16:15 14.54682 -61.08906 2237 ft 200 kts 234°
2026-04-24 16:16 14.53360 -61.11376 2054 ft 199 kts 253°
2026-04-24 16:16 14.53017 -61.12771 2013 ft 201 kts 255°
2026-04-24 16:17 14.54119 -61.16362 2009 ft 193 kts 341°
2026-04-24 16:17 14.56549 -61.15744 2007 ft 195 kts 57°
2026-04-24 16:18 14.57034 -61.13095 2018 ft 189 kts 86°
2026-04-24 16:18 14.57375 -61.10429 1658 ft 185 kts 80°
2026-04-24 16:18 14.57594 -61.09165 1421 ft 171 kts 80°
2026-04-24 16:19 14.57963 -61.06995 1032 ft 145 kts 80°
2026-04-24 16:19 14.58139 -61.05966 845 ft 147 kts 80°
2026-04-24 16:20 14.58486 -61.03936 460 ft 146 kts 80°
2026-04-24 16:20 14.58845 -61.01863 72 ft 147 kts 79°
2026-04-24 16:20 14.59014 -61.00867 27 ft 123 kts 79°
2026-04-24 16:21 14.59145 -61.00099 22 ft 17 kts 84°
2026-04-24 16:21 14.59177 -61.00031 24 ft 9 kts 24°
2026-04-24 16:21 14.59234 -61.00031 25 ft 7 kts 354°
2026-04-24 16:22 14.59277 -61.00037 25 ft 6 kts 351°
2026-04-24 16:22 14.59329 -61.00047 24 ft 5 kts 338°
2026-04-24 16:22 14.59359 -61.00065 24 ft 6 kts 340°
2026-04-24 16:23 14.59400 -61.00065 23 ft 6 kts 14°
2026-04-24 16:23 14.59426 -61.00053 23 ft 4 kts 24°
2026-04-24 16:23 14.59443 -61.00046 22 ft 2 kts 21°
2026-04-24 16:24 14.59448 -61.00044 22 ft 0 kts 21°